COSMOS 823

Satellite information

Favourite Embed

Satellite Type and Status

PAYLOADIN ORBIT

Key statistics

Satellite COSMOS 823 at a glance.

Uptime

17872

Days in orbit

Revolutions

≈ 13.7

Per day

Orbit

LEO

Low Earth Orbit

Inclination

83.0

Latest

Satellite identification and parameters

Extended collection of information and parameters for COSMOS 823.

Object identification

Identified? True

Debris? False

Object name: COSMOS 823

International designator: 1976-051A

Object number (NORAD): 8873

Object ID (CCSDS): 8873

Country: COMMONWEALTH OF INDEPENDENT STATES (CIS)

Current information (Y/N): Y

RCS size: LARGE

Orbital parameters

Period: 104.842 minutes

Inclination: 82.9658 deg

SMA: 7365.171 km

Apoapsis: 1002.518 km

Periapsis: 971.555 km

RAAN: 74.8431 deg

Eccentricy: 0.002102

Argument of periapsis: 264.2863 deg

Mean anomaly: 154.4636 deg

Mean motion: 13.73499438 rev/day

Mean motion (dot): 0.00000072 rev/day2

B* drag term: 0.000060904 1/REarth

Two-line elements (TLE)

Creation date: May 8, 2025, 3:01 a.m.

Reference frame: TEME

Reference center: EARTH

Epoch: May 7, 2025, 8:25 p.m. UTC

TLE line 0: 0 COSMOS 823

TLE line 1: 1 08873U 76051A 25127.85086457 .00000072 00000-0 60904-4 0 9997

TLE line 2: 2 08873 82.9658 74.8431 0021020 264.2863 154.4636 13.73499438451504

Live tracking on map

Real-time ground track for satellite COSMOS 823.

In-orbit conjunctions

There are no conjunctions computed for COSMOS 823, at the moment. Check back to stay up to date, as we update our databases every day.

Go to all conjunctions

Associated space launch

The first soviet navigation system called Tsiklon consisted of Zaliv satellites in low earth orbit.

COSMOS 823 was lifted into orbit during the mission ‘Kosmos-3M | Zaliv 21’, on board a Kosmos-3M space rocket.

The launch took place on June 2, 1976, 10:30 p.m. from 132/2.

For more information about the launch, click the button.

Launch to space Kosmos-3M | Zaliv 21
Kosmos-3M | Zaliv 21

Agency: N/A

Status: Launch Successful

Launch date: June 2, 1976, 10:30 p.m. UTC

Rocket: Kosmos-3M

Launch pad: 132/2

Location: Plesetsk Cosmodrome, Russian Federation

...

Latest news about this satellite

There are no fresh news available about this satellite. Check back as we update our databases every day.


Newsletter sign-up

Weekly statistics, charts and insights to help you stay on top of the space industry.